N0XUT Weather Reports


Display with metric or nautical units.
time (UTC)temp
F
wind
direction
speed
MPH
gust
MPH
rain 1hr
in
rain 24hr
in
rain mn
in
humidity
%
barometer
mb
20260904094459 77 161 1.0 3.0 0.00 0.02 0.00 83 1009.3
20260904092959 78 147 3.0 5.0 0.00 0.02 0.00 82 1009.2
20260904091459 78 184 1.0 3.0 0.00 0.02 0.00 81 1009.0
20260904084500 79 191 2.0 7.0 0.00 0.02 0.00 80 1008.7
20260904081459 79 209 2.0 9.0 0.00 0.02 0.00 80 1008.5
20260904075959 79 177 3.0 8.0 0.00 0.02 0.00 80 1008.6
20260904074459 80 195 4.0 9.0 0.00 0.02 0.00 79 1008.7
20260904072959 80 186 4.0 9.0 0.00 0.02 0.00 78 1008.8
20260904071459 80 170 3.0 10.0 0.00 0.02 0.00 80 1008.9
20260904064459 78 167 2.0 5.0 0.00 0.02 0.00 85 1009.1
20260904062959 78 164 2.0 3.0 0.00 0.02 0.00 86 1009.2
20260904061459 78 167 0.0 3.0 0.00 0.02 0.00 85 1009.3
20260904060000 79 131 0.0 3.0 0.00 0.02 0.00 84 1009.4
20260904054459 79 118 1.0 5.0 0.00 0.02 0.00 83 1009.4
20260904052959 79 173 2.0 6.0 0.00 0.02 0.00 83 1009.3
20260904051459 79 168 2.0 5.0 0.00 0.02 0.00 84 1009.2
20260904045959 79 177 2.0 5.0 0.00 0.02 0.00 86 1009.2
20260904043000 80 172 2.0 5.0 0.00 0.02 0.02 85 1009.3
20260904041500 80 153 3.0 6.0 0.00 0.02 0.02 85 1009.3
20260904035959 80 147 3.0 5.0 0.00 0.02 0.02 85 1009.2
20260904033000 81 145 3.0 5.0 0.00 0.02 0.02 84 1009.3
20260904030000 82 142 2.0 5.0 0.00 0.02 0.02 82 1009.1
20260904024459 82 152 3.0 6.0 0.00 0.02 0.02 82 1009.0
20260904023000 83 158 2.0 6.0 0.00 0.02 0.02 81 1008.9
20260904021500 83 149 2.0 5.0 0.00 0.02 0.02 82 1008.9
20260904013000 84 148 3.0 7.0 0.00 0.02 0.02 79 1008.2
20260904011500 84 142 3.0 6.0 0.00 0.02 0.02 79 1008.1
20260904005959 84 161 1.0 2.0 0.00 0.02 0.02 78 1008.0
20260904004459 85 158 2.0 5.0 0.00 0.02 0.02 76 1007.9
20260904003000 86 153 3.0 5.0 0.00 0.02 0.02 76 1007.8
20260904001500 87 169 2.0 5.0 0.00 0.02 0.02 75 1007.7
20260904000000 87 157 2.0 7.0 0.00 0.02 0.02 73 1007.7
20260903234501 88 176 4.0 9.0 0.00 0.02 0.02 70 1007.5
20260903232959 89 176 4.0 13.0 0.00 0.02 0.02 69 1007.4
20260903231500 89 170 6.0 14.0 0.00 0.02 0.02 67 1007.3
20260903230000 89 186 5.0 13.0 0.00 0.02 0.02 67 1007.3
20260903224500 89 186 7.0 15.0 0.01 0.02 0.02 68 1007.1
20260903223000 88 164 6.0 13.0 0.01 0.02 0.02 72 1007.0
20260903221500 86 186 5.0 12.0 0.02 0.02 0.02 75 1007.1
20260903215959 84 180 5.0 15.0 0.02 0.02 0.02 77 1007.0
20260903214500 84 179 6.0 13.0 0.01 0.01 0.01 78 1007.2
20260903211500 86 182 6.0 9.0 0.00 0.00 0.00 73 1008.0
20260903205959 87 181 3.0 7.0 0.00 0.00 0.00 73 1008.5
20260903204500 88 181 1.0 3.0 0.00 0.00 0.00 69 1008.9
20260903203000 89 216 1.0 5.0 0.00 0.00 0.00 66 1009.3
20260903201500 89 236 1.0 9.0 0.00 0.00 0.00 65 1009.5
20260903200000 90 257 3.0 10.0 0.00 0.00 0.00 62 1009.8
20260903194500 92 228 5.0 12.0 0.00 0.00 0.00 58 1009.8
20260903193000 92 186 4.0 12.0 0.00 0.00 0.00 60 1009.9
20260903185959 91 244 3.0 10.0 0.00 0.00 0.00 62 1010.2
20260903184500 91 186 2.0 8.0 0.00 0.00 0.00 60 1010.2
20260903183000 90 216 3.0 8.0 0.00 0.00 0.00 63 1010.2
20260903181500 89 177 5.0 10.0 0.00 0.00 0.00 62 1009.9
20260903180000 88 163 3.0 7.0 0.00 0.00 0.00 64 1009.9
20260903174500 88 162 3.0 8.0 0.00 0.00 0.00 66 1010.2
20260903173000 87 182 3.0 6.0 0.00 0.00 0.00 67 1010.4
20260903171500 86 154 3.0 9.0 0.00 0.00 0.00 70 1010.4
20260903170000 85 158 3.0 7.0 0.00 0.00 0.00 71 1010.5
20260903164500 84 164 3.0 7.0 0.00 0.00 0.00 70 1010.7
20260903161459 85 158 5.0 8.0 0.00 0.00 0.00 69 1011.0
20260903154500 82 134 2.0 10.0 0.00 0.00 0.00 73 1011.0
20260903153000 81 110 2.0 9.0 0.00 0.00 0.00 73 1011.0
20260903151500 80 97 3.0 7.0 0.00 0.00 0.00 74 1011.1
20260903150000 80 134 2.0 6.0 0.00 0.00 0.00 75 1011.1
20260903144500 79 103 2.0 7.0 0.00 0.00 0.00 75 1010.9
20260903143001 77 109 3.0 10.0 0.00 0.00 0.00 76 1010.8
20260903141500 77 60 3.0 12.0 0.00 0.00 0.00 77 1011.0
20260903140000 77 72 6.0 12.0 0.00 0.00 0.00 77 1011.2
20260903131500 76 51 3.0 7.0 0.00 0.00 0.00 83 1011.3
20260903130001 76 30 2.0 5.0 0.00 0.00 0.00 86 1011.5
20260903124501 75 28 0.0 3.0 0.00 0.00 0.00 88 1011.2
20260903123001 75 53 2.0 5.0 0.00 0.00 0.00 88 1011.2
20260903121500 75 19 3.0 9.0 0.00 0.00 0.00 87 1011.2
20260903120000 75 14 6.0 12.0 0.00 0.00 0.00 86 1011.1
20260903114500 75 341 3.0 5.0 0.00 0.00 0.00 85 1010.6
20260903113000 76 336 2.0 3.0 0.00 0.00 0.00 84 1010.2
20260903111500 76 310 1.0 3.0 0.00 0.00 0.00 83 1009.8
20260903110000 76 180 2.0 5.0 0.00 0.00 0.00 83 1009.5
20260903103000 77 166 2.0 7.0 0.00 0.00 0.00 82 1009.4
20260903100001 77 166 3.0 6.0 0.00 0.00 0.00 81 1009.3